Powrót do katalogu

CZ-3A DEB

AktywnyGTO
NORAD 35551·DEBRIS·🇨🇳 China

Wystrzelony Feb 2, 2007 z Xichang Satellite Launch Center

Loading…

TLE

NieaktualneSource: Space-Track

Epoka: Sep 13, 2026, 23:15 UTC

1 35551U 07003K   26256.96886997 -.00000146  00000-0 -23845-3 0  9990
2 35551  24.6499 204.7298 7202978 183.2162 166.4800  2.16455503 22982

Śledź CZ-3A DEB w czasie rzeczywistym z AllMySat

Download on the App Store